QPF
0.11 0.18 0.17 0.12 0.11 0.10 0.11 0.13 0.13 0.15 0.16 0.16 0.14 0.13 0.13 0.13 0.14 0.16 0.18 0.20 0.19 0.19 0.20 0.16 0.15 0.16 0.21 0.20 0.14 0.09 0.06 0.06 0.07 0.08 0.08 0.09 0.10 0.11 0.10 0.09 0.09 0.07 0.08
0.10 0.13 0.13 0.11 0.09 0.09 0.10 0.14 0.17 0.19 0.18 0.17 0.14 0.12 0.15 0.14 0.14 0.13 0.13 0.16 0.18 0.17 0.13 0.11 0.11 0.13 0.16 0.13 0.10 0.07 0.06 0.05 0.06 0.10 0.09 0.08 0.09 0.08 0.10 0.09 0.08 0.07 0.09
0.08 0.10 0.11 0.11 0.10 0.12 0.14 0.15 0.14 0.14 0.15 0.15 0.14 0.13 0.15 0.16 0.15 0.13 0.14 0.14 0.15 0.13 0.11 0.09 0.08 0.08 0.06 0.06 0.06 0.05 0.05 0.04 0.06 0.08 0.08 0.05 0.04 0.05 0.07 0.07 0.08 0.09 0.09
0.06 0.08 0.09 0.09 0.09 0.10 0.11 0.11 0.11 0.09 0.08 0.09 0.12 0.15 0.15 0.14 0.13 0.13 0.13 0.13 0.12 0.10 0.10 0.08 0.05 0.04 0.03 0.03 0.03 0.03 0.04 0.04 0.04 0.04 0.05 0.03 0.02 0.05 0.05 0.05 0.06 0.08 0.07
0.04 0.06 0.08 0.08 0.07 0.06 0.06 0.08 0.09 0.08 0.07 0.08 0.12 0.14 0.13 0.12 0.12 0.11 0.11 0.12 0.10 0.09 0.08 0.06 0.04 0.02 0.02 0.03 0.03 0.03 0.03 0.03 0.03 0.02 0.04 0.05 0.05 0.05 0.04 0.05 0.05 0.05 0.04
0.03 0.04 0.05 0.04 0.04 0.04 0.05 0.07 0.08 0.07 0.08 0.09 0.12 0.13 0.13 0.14 0.13 0.11 0.11 0.10 0.08 0.09 0.06 0.04 0.03 0.03 0.04 0.03 0.03 0.02 0.02 0.02 0.02 0.02 0.06 0.05 0.04 0.05 0.05 0.06 0.05 0.05 0.04
0.02 0.03 0.03 0.03 0.03 0.04 0.04 0.05 0.06 0.06 0.06 0.08 0.09 0.10 0.12 0.13 0.13 0.11 0.09 0.07 0.06 0.06 0.05 0.04 0.04 0.05 0.04 0.02 0.02 0.01 0.01 0.01 0.00 0.01 0.05 0.06 0.04 0.04 0.06 0.06 0.03 0.04 0.04
0.01 0.02 0.03 0.03 0.03 0.03 0.04 0.04 0.06 0.06 0.05 0.06 0.07 0.08 0.08 0.09 0.10 0.07 0.07 0.06 0.06 0.06 0.04 0.04 0.04 0.03 0.03 0.02 0.02 0.01 0.01 0.00 0.01 0.01 0.03 0.04 0.02 0.04 0.05 0.06 0.03 0.04 0.04
0.01 0.01 0.01 0.02 0.03 0.04 0.04 0.04 0.04 0.05 0.05 0.05 0.07 0.08 0.09 0.09 0.09 0.06 0.07 0.08 0.07 0.06 0.04 0.04 0.05 0.04 0.03 0.03 0.02 0.02 0.01 0.01 0.01 0.01 0.01 0.02 0.03 0.04 0.04 0.06 0.04 0.04 0.03
0.01 0.01 0.01 0.02 0.02 0.03 0.04 0.04 0.04 0.05 0.05 0.05 0.06 0.07 0.08 0.08 0.08 0.06 0.05 0.07 0.06 0.07 0.05 0.04 0.03 0.03 0.04 0.04 0.03 0.03 0.02 0.01 0.00 0.00 0.02 0.02 0.03 0.04 0.04 0.04 0.05 0.05 0.02
0.01 0.01 0.01 0.01 0.02 0.03 0.03 0.03 0.04 0.04 0.05 0.05 0.05 0.04 0.05 0.06 0.06 0.05 0.04 0.05 0.04 0.05 0.05 0.05 0.04 0.04 0.03 0.04 0.04 0.04 0.02 0.01 0.00 0.00 0.02 0.02 0.04 0.04 0.04 0.03 0.04 0.03 0.01
0.01 0.01 0.02 0.02 0.03 0.04 0.03 0.03 0.04 0.03 0.04 0.04 0.05 0.05 0.05 0.07 0.07 0.04 0.05 0.05 0.04 0.05 0.04 0.05 0.03 0.03 0.02 0.02 0.02 0.03 0.02 0.01 0.00 0.00 0.01 0.02 0.03 0.04 0.03 0.02 0.02 0.01 0.01
0.02 0.03 0.03 0.03 0.03 0.04 0.03 0.03 0.03 0.03 0.03 0.07 0.08 0.06 0.07 0.08 0.06 0.05 0.04 0.03 0.03 0.03 0.03 0.02 0.01 0.01 0.01 0.03 0.02 0.02 0.02 0.02 0.01 0.00 0.01 0.01 0.03 0.04 0.03 0.02 0.02 0.02 0.01
0.02 0.02 0.03 0.04 0.03 0.03 0.02 0.02 0.02 0.02 0.05 0.13 0.10 0.06 0.06 0.07 0.06 0.05 0.04 0.03 0.02 0.03 0.04 0.02 0.02 0.02 0.02 0.02 0.02 0.01 0.01 0.03 0.03 0.01 0.02 0.01 0.02 0.04 0.05 0.03 0.02 0.02 0.01
0.01 0.01 0.01 0.02 0.05 0.05 0.03 0.03 0.02 0.04 0.09 0.12 0.08 0.07 0.05 0.05 0.05 0.05 0.05 0.04 0.02 0.02 0.03 0.03 0.02 0.02 0.03 0.02 0.02 0.01 0.01 0.02 0.03 0.02 0.02 0.02 0.01 0.02 0.03 0.04 0.03 0.02 0.01
0.00 0.00 0.00 0.01 0.02 0.03 0.04 0.04 0.04 0.05 0.09 0.09 0.08 0.07 0.06 0.06 0.06 0.06 0.06 0.06 0.04 0.04 0.04 0.03 0.02 0.02 0.03 0.03 0.02 0.02 0.03 0.03 0.03 0.04 0.03 0.02 0.01 0.02 0.02 0.04 0.05 0.05 0.03
0.00 0.00 0.00 0.00 0.01 0.02 0.04 0.05 0.05 0.06 0.06 0.07 0.08 0.07 0.06 0.06 0.07 0.07 0.06 0.07 0.07 0.04 0.04 0.05 0.04 0.04 0.04 0.04 0.03 0.03 0.04 0.04 0.03 0.04 0.03 0.02 0.02 0.01 0.02 0.03 0.04 0.04 0.03
0.00 0.00 0.00 0.00 0.01 0.02 0.04 0.04 0.03 0.04 0.05 0.06 0.06 0.05 0.06 0.07 0.06 0.06 0.06 0.07 0.08 0.06 0.06 0.08 0.07 0.05 0.05 0.05 0.04 0.04 0.04 0.05 0.04 0.03 0.02 0.02 0.02 0.01 0.02 0.02 0.03 0.04 0.05
0.00 0.00 0.01 0.01 0.01 0.03 0.03 0.03 0.02 0.02 0.03 0.04 0.04 0.05 0.05 0.05 0.05 0.05 0.07 0.07 0.06 0.07 0.08 0.07 0.07 0.07 0.07 0.06 0.04 0.04 0.02 0.04 0.04 0.03 0.02 0.02 0.03 0.02 0.02 0.03 0.04 0.03 0.04
0.00 0.00 0.01 0.01 0.02 0.02 0.03 0.02 0.01 0.02 0.02 0.03 0.03 0.05 0.06 0.04 0.04 0.05 0.07 0.08 0.06 0.08 0.10 0.08 0.09 0.10 0.09 0.08 0.05 0.03 0.03 0.03 0.04 0.04 0.03 0.03 0.03 0.02 0.02 0.02 0.03 0.03 0.03
0.00 0.00 0.01 0.01 0.01 0.02 0.02 0.02 0.03 0.04 0.03 0.02 0.03 0.03 0.04 0.03 0.04 0.05 0.05 0.08 0.09 0.08 0.09 0.08 0.07 0.09 0.08 0.07 0.08 0.07 0.03 0.02 0.03 0.02 0.02 0.02 0.02 0.01 0.03 0.03 0.04 0.05 0.03
0.00 0.00 0.01 0.01 0.01 0.01 0.01 0.01 0.02 0.02 0.02 0.02 0.02 0.02 0.03 0.04 0.04 0.05 0.06 0.07 0.09 0.09 0.08 0.08 0.09 0.09 0.07 0.07 0.08 0.09 0.07 0.05 0.03 0.01 0.02 0.02 0.02 0.03 0.03 0.03 0.03 0.05 0.04
0.00 0.01 0.00 0.00 0.01 0.01 0.01 0.01 0.01 0.02 0.03 0.03 0.04 0.04 0.03 0.03 0.03 0.04 0.04 0.05 0.08 0.08 0.08 0.10 0.10 0.11 0.09 0.08 0.08 0.09 0.08 0.08 0.05 0.04 0.03 0.02 0.03 0.04 0.04 0.04 0.04 0.05 0.05
0.00 0.00 0.00 0.00 0.01 0.01 0.01 0.01 0.01 0.03 0.03 0.04 0.04 0.04 0.04 0.04 0.03 0.03 0.04 0.05 0.07 0.05 0.07 0.08 0.07 0.09 0.08 0.08 0.07 0.06 0.06 0.07 0.07 0.07 0.06 0.03 0.03 0.03 0.03 0.02 0.03 0.04 0.04
0.00 0.00 0.00 0.00 0.00 0.01 0.02 0.02 0.02 0.02 0.03 0.03 0.03 0.04 0.05 0.04 0.02 0.02 0.02 0.04 0.06 0.06 0.06 0.06 0.06 0.06 0.07 0.07 0.07 0.06 0.05 0.06 0.06 0.08 0.08 0.05 0.05 0.04 0.03 0.03 0.03 0.03 0.03
0.00 0.00 0.00 0.00 0.00 0.01 0.02 0.02 0.02 0.02 0.02 0.03 0.03 0.03 0.04 0.03 0.03 0.02 0.03 0.05 0.06 0.06 0.06 0.06 0.06 0.05 0.05 0.06 0.06 0.05 0.06 0.08 0.07 0.07 0.07 0.06 0.05 0.04 0.03 0.03 0.03 0.03 0.03
MSLP
1012.39 1012.17 1011.98 1011.82 1011.71 1011.63 1011.55 1011.45 1011.31 1011.14 1010.96 1010.80 1010.70 1010.70 1010.79 1010.98 1011.24 1011.52 1011.81 1012.07 1012.30 1012.51 1012.72 1012.96 1013.23 1013.56 1013.92 1014.29 1014.67 1015.03 1015.36 1015.68 1015.99 1016.32 1016.66 1017.01 1017.36 1017.69 1017.98 1018.22 1018.40 1018.54 1018.65
1012.68 1012.56 1012.44 1012.36 1012.30 1012.24 1012.17 1012.06 1011.91 1011.72 1011.53 1011.38 1011.31 1011.33 1011.47 1011.69 1011.96 1012.25 1012.51 1012.73 1012.90 1013.05 1013.21 1013.40 1013.65 1013.95 1014.30 1014.68 1015.05 1015.40 1015.73 1016.05 1016.36 1016.68 1017.02 1017.38 1017.74 1018.08 1018.37 1018.61 1018.78 1018.90 1019.00
1012.93 1012.87 1012.82 1012.80 1012.79 1012.78 1012.74 1012.65 1012.51 1012.33 1012.15 1012.01 1011.96 1012.00 1012.14 1012.35 1012.60 1012.85 1013.06 1013.22 1013.34 1013.45 1013.58 1013.75 1013.99 1014.30 1014.66 1015.03 1015.41 1015.76 1016.08 1016.38 1016.69 1017.00 1017.35 1017.71 1018.07 1018.41 1018.71 1018.94 1019.11 1019.23 1019.32
1013.08 1013.07 1013.08 1013.12 1013.18 1013.23 1013.24 1013.20 1013.10 1012.95 1012.80 1012.68 1012.63 1012.67 1012.78 1012.96 1013.16 1013.35 1013.50 1013.61 1013.69 1013.77 1013.89 1014.07 1014.33 1014.66 1015.03 1015.41 1015.78 1016.11 1016.41 1016.70 1016.99 1017.30 1017.64 1018.00 1018.37 1018.71 1019.00 1019.24 1019.41 1019.53 1019.63
1013.16 1013.18 1013.24 1013.35 1013.47 1013.60 1013.69 1013.71 1013.67 1013.58 1013.46 1013.36 1013.31 1013.32 1013.40 1013.52 1013.66 1013.79 1013.88 1013.95 1014.01 1014.09 1014.23 1014.44 1014.73 1015.08 1015.46 1015.83 1016.17 1016.48 1016.75 1017.00 1017.27 1017.57 1017.90 1018.27 1018.64 1018.99 1019.29 1019.52 1019.70 1019.83 1019.94
1013.18 1013.23 1013.33 1013.50 1013.70 1013.90 1014.07 1014.18 1014.20 1014.16 1014.08 1014.00 1013.95 1013.94 1013.98 1014.05 1014.14 1014.21 1014.27 1014.32 1014.38 1014.49 1014.66 1014.91 1015.23 1015.59 1015.95 1016.30 1016.60 1016.85 1017.07 1017.29 1017.53 1017.81 1018.15 1018.53 1018.91 1019.27 1019.58 1019.82 1019.99 1020.13 1020.25
1013.20 1013.27 1013.40 1013.62 1013.89 1014.16 1014.40 1014.58 1014.66 1014.67 1014.63 1014.56 1014.51 1014.49 1014.51 1014.55 1014.60 1014.65 1014.69 1014.75 1014.84 1014.98 1015.19 1015.47 1015.81 1016.16 1016.50 1016.79 1017.03 1017.22 1017.38 1017.55 1017.77 1018.05 1018.40 1018.79 1019.19 1019.57 1019.89 1020.13 1020.30 1020.43 1020.56
1013.27 1013.33 1013.50 1013.75 1014.07 1014.39 1014.68 1014.90 1015.03 1015.07 1015.05 1015.01 1014.97 1014.95 1014.97 1015.00 1015.05 1015.10 1015.17 1015.25 1015.37 1015.55 1015.79 1016.09 1016.42 1016.75 1017.04 1017.27 1017.43 1017.55 1017.65 1017.78 1017.98 1018.27 1018.64 1019.06 1019.49 1019.89 1020.22 1020.46 1020.63 1020.74 1020.85
1013.40 1013.47 1013.65 1013.92 1014.26 1014.61 1014.92 1015.15 1015.29 1015.35 1015.35 1015.33 1015.31 1015.31 1015.35 1015.41 1015.48 1015.56 1015.66 1015.77 1015.93 1016.14 1016.39 1016.69 1017.00 1017.28 1017.51 1017.67 1017.76 1017.81 1017.87 1017.97 1018.17 1018.47 1018.87 1019.33 1019.80 1020.22 1020.56 1020.80 1020.95 1021.05 1021.13
1013.62 1013.68 1013.86 1014.14 1014.48 1014.82 1015.11 1015.33 1015.46 1015.52 1015.53 1015.52 1015.54 1015.58 1015.65 1015.75 1015.87 1015.99 1016.12 1016.27 1016.45 1016.67 1016.92 1017.20 1017.47 1017.71 1017.88 1017.97 1018.01 1018.01 1018.04 1018.14 1018.34 1018.67 1019.11 1019.61 1020.11 1020.56 1020.91 1021.14 1021.27 1021.34 1021.39
1013.88 1013.95 1014.13 1014.40 1014.72 1015.02 1015.28 1015.47 1015.57 1015.61 1015.62 1015.63 1015.68 1015.77 1015.90 1016.05 1016.21 1016.37 1016.53 1016.70 1016.88 1017.09 1017.33 1017.57 1017.81 1018.00 1018.13 1018.18 1018.18 1018.17 1018.19 1018.29 1018.51 1018.87 1019.34 1019.87 1020.40 1020.86 1021.22 1021.46 1021.58 1021.62 1021.64
1014.16 1014.24 1014.42 1014.68 1014.96 1015.23 1015.44 1015.57 1015.63 1015.65 1015.66 1015.70 1015.79 1015.92 1016.10 1016.31 1016.51 1016.70 1016.87 1017.04 1017.21 1017.40 1017.60 1017.81 1018.02 1018.18 1018.28 1018.32 1018.32 1018.31 1018.34 1018.46 1018.70 1019.07 1019.56 1020.11 1020.65 1021.13 1021.50 1021.74 1021.85 1021.89 1021.89
1014.40 1014.51 1014.70 1014.95 1015.20 1015.43 1015.58 1015.67 1015.69 1015.69 1015.71 1015.77 1015.89 1016.07 1016.30 1016.54 1016.78 1016.98 1017.15 1017.30 1017.44 1017.60 1017.77 1017.95 1018.14 1018.29 1018.39 1018.45 1018.47 1018.48 1018.53 1018.66 1018.91 1019.29 1019.77 1020.31 1020.85 1021.33 1021.71 1021.95 1022.08 1022.13 1022.13
1014.59 1014.73 1014.94 1015.19 1015.42 1015.61 1015.73 1015.77 1015.77 1015.76 1015.78 1015.87 1016.03 1016.25 1016.51 1016.78 1017.03 1017.23 1017.39 1017.51 1017.62 1017.74 1017.88 1018.05 1018.22 1018.39 1018.52 1018.60 1018.66 1018.70 1018.78 1018.92 1019.16 1019.51 1019.96 1020.47 1020.98 1021.45 1021.83 1022.10 1022.25 1022.33 1022.36
1014.71 1014.90 1015.14 1015.39 1015.62 1015.78 1015.87 1015.89 1015.88 1015.87 1015.91 1016.02 1016.21 1016.46 1016.75 1017.04 1017.28 1017.48 1017.61 1017.70 1017.78 1017.87 1017.99 1018.15 1018.33 1018.52 1018.68 1018.82 1018.91 1018.99 1019.08 1019.22 1019.43 1019.73 1020.12 1020.57 1021.04 1021.48 1021.86 1022.15 1022.34 1022.47 1022.56
1014.78 1015.02 1015.29 1015.55 1015.78 1015.93 1016.01 1016.03 1016.02 1016.03 1016.09 1016.22 1016.44 1016.71 1017.01 1017.30 1017.54 1017.72 1017.83 1017.90 1017.95 1018.02 1018.14 1018.30 1018.49 1018.71 1018.91 1019.09 1019.22 1019.33 1019.42 1019.54 1019.70 1019.94 1020.25 1020.62 1021.02 1021.42 1021.79 1022.10 1022.34 1022.53 1022.68
1014.80 1015.09 1015.39 1015.67 1015.90 1016.06 1016.14 1016.17 1016.18 1016.21 1016.30 1016.45 1016.68 1016.96 1017.26 1017.55 1017.78 1017.94 1018.04 1018.10 1018.14 1018.21 1018.32 1018.49 1018.70 1018.94 1019.18 1019.39 1019.55 1019.67 1019.76 1019.84 1019.95 1020.11 1020.33 1020.61 1020.93 1021.28 1021.63 1021.95 1022.24 1022.49 1022.70
1014.80 1015.13 1015.45 1015.74 1015.98 1016.15 1016.25 1016.30 1016.34 1016.40 1016.51 1016.68 1016.92 1017.20 1017.49 1017.75 1017.97 1018.13 1018.23 1018.28 1018.33 1018.41 1018.53 1018.70 1018.93 1019.19 1019.44 1019.67 1019.85 1019.97 1020.05 1020.10 1020.16 1020.24 1020.37 1020.56 1020.81 1021.09 1021.41 1021.73 1022.04 1022.33 1022.60
1014.75 1015.11 1015.45 1015.75 1016.00 1016.18 1016.31 1016.40 1016.48 1016.57 1016.70 1016.89 1017.12 1017.38 1017.65 1017.90 1018.10 1018.26 1018.36 1018.43 1018.50 1018.59 1018.73 1018.91 1019.14 1019.40 1019.66 1019.89 1020.07 1020.20 1020.26 1020.29 1020.31 1020.33 1020.39 1020.50 1020.66 1020.88 1021.15 1021.44 1021.76 1022.08 1022.39
1014.63 1015.01 1015.36 1015.67 1015.93 1016.15 1016.31 1016.45 1016.57 1016.69 1016.85 1017.03 1017.24 1017.48 1017.72 1017.94 1018.14 1018.29 1018.41 1018.51 1018.61 1018.73 1018.88 1019.07 1019.30 1019.55 1019.79 1020.02 1020.19 1020.32 1020.39 1020.41 1020.40 1020.39 1020.39 1020.43 1020.53 1020.67 1020.88 1021.13 1021.42 1021.73 1022.06
1014.39 1014.78 1015.15 1015.47 1015.76 1016.01 1016.23 1016.41 1016.58 1016.75 1016.92 1017.10 1017.29 1017.49 1017.69 1017.88 1018.06 1018.23 1018.37 1018.51 1018.64 1018.79 1018.96 1019.16 1019.38 1019.61 1019.83 1020.04 1020.21 1020.34 1020.41 1020.45 1020.44 1020.42 1020.39 1020.39 1020.41 1020.49 1020.62 1020.80 1021.05 1021.33 1021.64
1013.98 1014.40 1014.78 1015.13 1015.46 1015.76 1016.03 1016.29 1016.51 1016.72 1016.90 1017.08 1017.24 1017.40 1017.56 1017.72 1017.88 1018.05 1018.22 1018.40 1018.58 1018.77 1018.96 1019.16 1019.36 1019.57 1019.77 1019.96 1020.12 1020.26 1020.35 1020.41 1020.43 1020.42 1020.39 1020.35 1020.32 1020.33 1020.38 1020.48 1020.65 1020.89 1021.17
1013.39 1013.83 1014.25 1014.64 1015.02 1015.38 1015.73 1016.05 1016.34 1016.59 1016.79 1016.96 1017.09 1017.21 1017.32 1017.45 1017.60 1017.78 1017.98 1018.19 1018.42 1018.64 1018.86 1019.06 1019.26 1019.44 1019.61 1019.78 1019.94 1020.08 1020.21 1020.31 1020.37 1020.39 1020.36 1020.31 1020.24 1020.18 1020.15 1020.17 1020.26 1020.43 1020.67
1012.63 1013.11 1013.57 1014.01 1014.45 1014.89 1015.32 1015.72 1016.07 1016.36 1016.59 1016.75 1016.85 1016.93 1017.00 1017.10 1017.23 1017.41 1017.64 1017.89 1018.16 1018.42 1018.66 1018.87 1019.05 1019.21 1019.36 1019.51 1019.66 1019.82 1019.98 1020.12 1020.22 1020.28 1020.28 1020.23 1020.13 1020.02 1019.92 1019.86 1019.87 1019.97 1020.17
1011.79 1012.30 1012.80 1013.30 1013.81 1014.32 1014.82 1015.29 1015.71 1016.04 1016.29 1016.44 1016.53 1016.57 1016.61 1016.68 1016.79 1016.98 1017.22 1017.51 1017.81 1018.10 1018.36 1018.58 1018.76 1018.90 1019.02 1019.15 1019.30 1019.47 1019.65 1019.83 1019.98 1020.08 1020.12 1020.07 1019.97 1019.82 1019.66 1019.54 1019.48 1019.53 1019.69
1010.95 1011.49 1012.03 1012.58 1013.14 1013.71 1014.28 1014.80 1015.27 1015.64 1015.90 1016.05 1016.12 1016.14 1016.15 1016.20 1016.30 1016.48 1016.74 1017.05 1017.38 1017.69 1017.97 1018.19 1018.36 1018.48 1018.59 1018.70 1018.84 1019.01 1019.21 1019.42 1019.62 1019.77 1019.84 1019.82 1019.72 1019.56 1019.38 1019.21 1019.11 1019.12 1019.24
Thickness
5783 5783 5779 5779 5779 5779 5780 5780 5779 5778 5777 5777 5777 5776 5775 5774 5773 5771 5771 5770 5768 5767 5766 5765 5764 5763 5762 5760 5759 5757 5756 5755 5753 5752 5750 5748 5747 5745 5744 5743 5743 5742 5738
5785 5783 5778 5778 5778 5777 5777 5777 5776 5775 5775 5775 5774 5774 5773 5772 5771 5770 5768 5767 5766 5765 5763 5762 5761 5761 5759 5758 5756 5755 5754 5753 5751 5750 5748 5747 5744 5743 5742 5741 5742 5740 5737
5785 5782 5778 5777 5776 5775 5775 5775 5774 5774 5773 5772 5772 5771 5770 5769 5768 5767 5765 5764 5763 5762 5761 5760 5760 5759 5757 5756 5755 5753 5752 5750 5749 5749 5749 5749 5744 5741 5740 5739 5738 5736 5734
5785 5782 5778 5775 5774 5774 5773 5773 5773 5772 5771 5770 5769 5769 5768 5766 5765 5764 5763 5762 5761 5760 5759 5758 5757 5756 5755 5754 5752 5751 5750 5749 5749 5750 5751 5749 5745 5739 5738 5737 5735 5734 5733
5785 5781 5775 5773 5773 5772 5772 5771 5771 5770 5769 5768 5767 5766 5765 5764 5762 5761 5760 5760 5759 5758 5757 5756 5755 5754 5753 5752 5751 5749 5748 5748 5749 5751 5749 5747 5743 5738 5736 5735 5733 5732 5731
5785 5781 5775 5772 5771 5771 5770 5769 5768 5768 5767 5766 5765 5764 5762 5761 5760 5759 5758 5757 5756 5756 5755 5754 5753 5752 5751 5750 5749 5748 5747 5748 5750 5751 5747 5745 5741 5736 5735 5734 5732 5731 5730
5785 5781 5775 5770 5769 5769 5768 5767 5766 5766 5765 5763 5762 5761 5760 5759 5757 5757 5756 5755 5754 5754 5753 5752 5751 5750 5749 5748 5747 5746 5747 5748 5751 5749 5746 5743 5739 5735 5734 5732 5731 5730 5729
5785 5781 5774 5769 5768 5767 5766 5765 5764 5763 5762 5761 5760 5759 5758 5756 5755 5755 5754 5753 5753 5752 5751 5750 5750 5749 5748 5747 5746 5745 5746 5748 5749 5748 5745 5741 5736 5734 5732 5731 5730 5729 5727
5784 5782 5777 5773 5769 5766 5765 5763 5762 5761 5760 5759 5758 5757 5756 5754 5753 5753 5752 5752 5751 5750 5749 5749 5748 5747 5746 5745 5745 5745 5745 5747 5750 5747 5745 5740 5734 5732 5731 5730 5728 5727 5726
5782 5781 5778 5774 5772 5770 5766 5762 5761 5759 5758 5757 5756 5755 5754 5753 5752 5752 5751 5750 5750 5749 5748 5747 5746 5746 5745 5744 5744 5744 5745 5747 5750 5747 5743 5738 5733 5731 5730 5728 5727 5727 5726
5778 5778 5778 5775 5773 5771 5769 5763 5761 5759 5757 5756 5755 5754 5755 5756 5755 5753 5751 5749 5748 5748 5747 5746 5745 5745 5745 5744 5743 5744 5746 5750 5749 5746 5741 5735 5732 5730 5729 5727 5726 5725 5724
5775 5776 5776 5774 5772 5771 5769 5764 5764 5762 5759 5758 5757 5756 5756 5754 5754 5753 5749 5748 5747 5747 5746 5746 5746 5746 5747 5748 5746 5745 5749 5749 5748 5745 5739 5734 5732 5730 5728 5727 5726 5724 5723
5777 5776 5774 5772 5770 5771 5768 5766 5764 5762 5759 5758 5756 5755 5754 5754 5754 5753 5752 5750 5748 5748 5749 5747 5749 5750 5749 5748 5749 5749 5749 5749 5748 5745 5739 5734 5731 5730 5728 5727 5725 5724 5723
5778 5776 5775 5772 5769 5768 5768 5766 5764 5763 5761 5759 5756 5756 5755 5754 5753 5753 5752 5752 5751 5750 5749 5750 5748 5748 5748 5748 5749 5749 5748 5749 5747 5744 5738 5734 5731 5730 5728 5727 5725 5724 5723
5778 5777 5774 5772 5769 5767 5765 5765 5765 5763 5762 5758 5756 5755 5754 5755 5754 5753 5751 5750 5752 5751 5750 5749 5749 5747 5748 5748 5748 5748 5747 5747 5746 5744 5739 5734 5732 5730 5729 5727 5726 5725 5723
5780 5778 5776 5772 5769 5766 5765 5763 5763 5762 5759 5758 5757 5755 5753 5754 5752 5752 5750 5750 5751 5750 5750 5749 5749 5748 5749 5748 5748 5747 5747 5747 5745 5744 5742 5737 5734 5732 5730 5728 5727 5726 5724
5783 5780 5776 5773 5771 5767 5765 5764 5764 5762 5761 5759 5757 5754 5753 5753 5752 5751 5752 5751 5751 5750 5749 5748 5748 5749 5749 5749 5748 5748 5748 5747 5746 5744 5744 5742 5739 5734 5732 5730 5728 5727 5725
5785 5781 5778 5777 5773 5769 5766 5764 5765 5763 5761 5759 5757 5755 5753 5752 5751 5751 5752 5752 5749 5750 5750 5749 5750 5750 5749 5749 5749 5749 5749 5747 5747 5746 5745 5743 5742 5741 5736 5733 5730 5728 5727
5788 5783 5780 5778 5775 5771 5768 5765 5764 5761 5760 5759 5758 5756 5754 5753 5752 5752 5752 5750 5750 5750 5750 5751 5750 5750 5748 5748 5749 5749 5750 5750 5749 5749 5747 5746 5743 5742 5741 5736 5733 5731 5729
5791 5787 5783 5779 5776 5773 5770 5766 5764 5763 5762 5760 5759 5757 5755 5754 5752 5752 5751 5750 5750 5750 5749 5749 5747 5748 5748 5748 5751 5751 5751 5752 5751 5751 5749 5749 5746 5744 5743 5741 5737 5735 5732
5794 5789 5785 5782 5778 5774 5771 5768 5765 5763 5763 5762 5761 5758 5756 5755 5754 5752 5753 5751 5750 5750 5749 5750 5749 5748 5749 5749 5748 5748 5751 5754 5753 5751 5751 5751 5750 5747 5744 5742 5741 5740 5737
5796 5792 5788 5784 5782 5778 5775 5772 5769 5767 5766 5765 5763 5760 5758 5756 5755 5755 5753 5752 5751 5750 5749 5748 5747 5748 5749 5750 5746 5744 5743 5747 5750 5754 5752 5750 5750 5749 5747 5746 5743 5740 5739
5800 5796 5794 5789 5786 5782 5779 5775 5771 5768 5766 5765 5763 5762 5760 5758 5757 5755 5754 5753 5752 5752 5751 5749 5748 5747 5747 5749 5749 5744 5740 5738 5746 5751 5750 5751 5749 5748 5748 5747 5744 5741 5739
5805 5803 5798 5793 5789 5785 5781 5777 5773 5769 5766 5767 5766 5765 5762 5760 5759 5757 5755 5754 5752 5753 5751 5750 5752 5749 5747 5746 5748 5747 5746 5744 5739 5741 5747 5749 5748 5746 5746 5747 5746 5743 5740
5810 5806 5802 5796 5791 5787 5783 5780 5775 5772 5771 5771 5769 5766 5763 5763 5760 5759 5757 5755 5753 5753 5751 5750 5749 5749 5749 5747 5747 5747 5745 5744 5743 5738 5737 5741 5746 5748 5747 5746 5745 5743 5741
5813 5809 5805 5798 5793 5790 5785 5782 5777 5774 5771 5769 5767 5766 5764 5764 5763 5761 5759 5756 5754 5753 5752 5750 5749 5749 5748 5747 5747 5747 5744 5742 5741 5740 5737 5738 5739 5743 5744 5744 5743 5742 5740